Weather History for Burlington, WI

Change the Weather History Date:

Tuesday, October 1, 2013

  Actual Average (KENW) Record (KENW)
Temperature  
Mean Temperature 62 °F -  
Max Temperature 80 °F 66 °F 85 °F (1971)
Min Temperature 44 °F 47 °F 28 °F (2003)
Degree Days  
Heating Degree Days 3    
Growing Degree Days 12 (Base 50)    
Moisture  
Dew Point 57 °F    
Average Humidity 80    
Maximum Humidity 100    
Minimum Humidity 48    
Precipitation  
Precipitation 0.00 in - - ()
Sea Level Pressure  
Sea Level Pressure 29.90 in    
Wind  
Wind Speed 6 mph (SW)    
Max Wind Speed 18 mph    
Max Gust Speed 26 mph    
Visibility 9 miles    
Events      
Averages and records for this station are not official NWS values.
T = Trace of Precipitation, MM = Missing Value Source: NWS Daily Summary

Daily Weather History Graph

Daily Weather History Graph

Search for Another Location

Airport:

Trip Planner

Search our weather history database for the weather conditions in past years. The results will help you decide how hot, cold, wet, or windy it might be!

Date:

Astronomy

Oct. 01, 2013 Rise Set
Actual Time 6:50 AM CDT 6:34 PM CDT
Civil Twilight 6:22 AM CDT 7:02 PM CDT
Nautical Twilight 5:49 AM CDT 7:34 PM CDT
Astronomical Twilight 5:16 AM CDT 8:07 PM CDT
Moon 3:20 AM CDT (10/1) 4:40 PM CDT (10/1)
Length of Visible Light 12h 39m
Length of Day
11h 43m
Waning Crescent, 12% of the Moon is Illuminated
Oct 1
Waning Crescent
Oct 4
New
Oct 11
First Quarter
Oct 18
Full
Oct 26
Last Quarter

Hourly Weather History & Observations

Time (CDT) Temp. Heat Index Dew Point Humidity Pressure Visibility Wind Dir Wind Speed Gust Speed Precip Events Conditions
12:15 AM 44.6 °F - 43.5 °F 96% 29.88 in 10.0 mi Calm Calm - N/A   Clear
12:35 AM 45.7 °F - 44.2 °F 95% 29.88 in 10.0 mi Calm Calm - N/A   Clear
12:55 AM 45.5 °F - 44.4 °F 96% 29.88 in 10.0 mi Calm Calm - N/A   Clear
1:15 AM 45.7 °F - 44.6 °F 96% 29.88 in 10.0 mi Calm Calm - N/A   Clear
1:35 AM 46.8 °F - 45.1 °F 94% 29.89 in 10.0 mi Calm Calm - N/A   Clear
1:55 AM 46.0 °F - 45.0 °F 96% 29.89 in 10.0 mi Calm Calm - N/A   Clear
2:15 AM 50.7 °F - 49.5 °F 95% 29.89 in 10.0 mi SSW 3.5 mph - N/A   Clear
2:35 AM 54.9 °F - 54.0 °F 97% 29.89 in 10.0 mi South 5.8 mph - N/A   Clear
2:55 AM 57.2 °F - 54.9 °F 92% 29.89 in 10.0 mi South 6.9 mph - N/A   Clear
3:15 AM 55.9 °F - 54.1 °F 94% 29.89 in 10.0 mi South 5.8 mph - N/A   Clear
3:35 AM 55.8 °F - 54.1 °F 94% 29.88 in 10.0 mi SSW 6.9 mph - N/A   Clear
3:55 AM 55.4 °F - 54.0 °F 95% 29.88 in 10.0 mi South 4.6 mph - N/A   Clear
4:15 AM 55.0 °F - 54.1 °F 97% 29.89 in 7.0 mi South 5.8 mph - N/A   Clear
4:35 AM 54.9 °F - 54.1 °F 97% 29.89 in 7.0 mi South 4.6 mph - N/A   Clear
4:55 AM 54.7 °F - 54.1 °F 98% 29.89 in 7.0 mi South 5.8 mph - N/A   Clear
5:15 AM 54.9 °F - 54.5 °F 99% 29.88 in 7.0 mi South 4.6 mph - N/A   Clear
5:35 AM 54.7 °F - 54.5 °F 99% 29.89 in 7.0 mi SSW 5.8 mph - N/A   Clear
5:55 AM 54.9 °F - 54.5 °F 99% 29.89 in 5.0 mi SSW 4.6 mph - N/A   Clear
6:15 AM 54.5 °F - 54.5 °F 100% 29.89 in 5.0 mi South 5.8 mph - N/A   Clear
6:35 AM 54.9 °F - 54.7 °F 99% 29.90 in 5.0 mi SSW 3.5 mph - N/A   Clear
6:55 AM 55.4 °F - 55.4 °F 100% 29.90 in 5.0 mi SSW 6.9 mph - N/A   Clear
7:15 AM 56.3 °F - 55.9 °F 99% 29.90 in 5.0 mi SSW 6.9 mph - N/A   Clear
7:35 AM 57.0 °F - 56.5 °F 98% 29.91 in 5.0 mi SSW 8.1 mph - N/A   Clear
7:55 AM 58.1 °F - 57.4 °F 97% 29.91 in 5.0 mi SSW 5.8 mph - N/A   Scattered Clouds
8:15 AM 59.2 °F - 58.3 °F 97% 29.92 in 5.0 mi SSW 5.8 mph - N/A   Overcast
8:35 AM 60.1 °F - 59.2 °F 97% 29.91 in 5.0 mi SSW 6.9 mph - N/A   Mostly Cloudy
8:55 AM 61.7 °F - 60.1 °F 94% 29.91 in 7.0 mi SSW 9.2 mph - N/A   Overcast
9:15 AM 63.1 °F - 60.8 °F 92% 29.92 in 10.0 mi SSW 8.1 mph - N/A   Overcast
9:35 AM 64.0 °F - 61.0 °F 90% 29.91 in 10.0 mi SSW 11.5 mph 16.1 mph N/A   Overcast
9:55 AM 65.8 °F - 61.5 °F 86% 29.91 in 10.0 mi SSW 11.5 mph 17.3 mph N/A   Overcast
10:15 AM 66.6 °F - 61.0 °F 82% 29.91 in 10.0 mi SW 11.5 mph 18.4 mph N/A   Overcast
10:35 AM 68.5 °F - 61.0 °F 77% 29.91 in 10.0 mi SSW 12.7 mph 24.2 mph N/A   Mostly Cloudy
10:55 AM 66.7 °F - 60.3 °F 80% 29.91 in 10.0 mi SSW 15.0 mph 24.2 mph N/A   Scattered Clouds
11:15 AM 70.3 °F - 60.8 °F 72% 29.89 in 10.0 mi SSW 17.3 mph 25.3 mph N/A   Scattered Clouds
11:35 AM 71.6 °F - 60.8 °F 69% 29.89 in 10.0 mi SSW 15.0 mph 23.0 mph N/A   Scattered Clouds
11:55 AM 72.5 °F - 60.6 °F 66% 29.89 in 10.0 mi SSW 13.8 mph 23.0 mph N/A   Scattered Clouds
12:15 PM 73.6 °F - 60.3 °F 63% 29.89 in 10.0 mi SW 17.3 mph 25.3 mph N/A   Clear
12:35 PM 74.1 °F - 60.8 °F 63% 29.88 in 10.0 mi SSW 15.0 mph 24.2 mph N/A   Clear
12:55 PM 75.0 °F - 60.3 °F 60% 29.87 in 10.0 mi SW 18.4 mph 26.5 mph N/A   Clear
1:15 PM 76.3 °F - 60.6 °F 58% 29.87 in 10.0 mi SW 13.8 mph 23.0 mph N/A   Clear
1:35 PM 76.8 °F - 60.3 °F 56% 29.87 in 10.0 mi SSW 18.4 mph 23.0 mph N/A   Clear
1:55 PM 77.4 °F - 60.1 °F 55% 29.86 in 10.0 mi SW 16.1 mph 23.0 mph N/A   Clear
2:15 PM 78.3 °F - 60.3 °F 54% 29.86 in 10.0 mi SW 15.0 mph 23.0 mph N/A   Clear
2:35 PM 78.6 °F - 59.9 °F 52% 29.87 in 10.0 mi SW 16.1 mph 23.0 mph N/A   Scattered Clouds
2:55 PM 79.3 °F - 59.9 °F 51% 29.87 in 10.0 mi SW 15.0 mph 20.7 mph N/A   Scattered Clouds
3:15 PM 79.5 °F - 59.4 °F 50% 29.86 in 10.0 mi SW 18.4 mph 24.2 mph N/A   Clear
3:35 PM 80.4 °F 81.1 °F 59.4 °F 49% 29.86 in 10.0 mi SW 12.7 mph 18.4 mph N/A   Clear
3:55 PM 80.4 °F 81.0 °F 59.2 °F 48% 29.86 in 10.0 mi WSW 16.1 mph 23.0 mph N/A   Clear
4:15 PM 79.9 °F - 59.2 °F 49% 29.86 in 10.0 mi SW 12.7 mph 18.4 mph N/A   Clear
4:35 PM 79.9 °F - 59.2 °F 49% 29.86 in 7.0 mi SW 12.7 mph 21.9 mph N/A   Clear
4:55 PM 80.1 °F 80.7 °F 59.0 °F 48% 29.87 in 10.0 mi SW 11.5 mph 16.1 mph N/A   Clear
5:15 PM 79.7 °F - 59.2 °F 49% 29.87 in 10.0 mi WSW 9.2 mph 16.1 mph N/A   Clear
5:35 PM 78.8 °F - 58.6 °F 50% 29.88 in 10.0 mi WSW 5.8 mph - N/A   Clear
5:55 PM 77.5 °F - 58.5 °F 52% 29.88 in 10.0 mi WSW 8.1 mph - N/A   Clear
6:15 PM 75.9 °F - 58.5 °F 55% 29.88 in 10.0 mi West 5.8 mph - N/A   Clear
6:35 PM 73.9 °F - 59.0 °F 59% 29.89 in 10.0 mi West 5.8 mph - N/A   Clear
6:55 PM 72.0 °F - 59.0 °F 64% 29.90 in 10.0 mi West 4.6 mph - N/A   Clear
7:15 PM 69.8 °F - 59.0 °F 68% 29.90 in 10.0 mi WSW 4.6 mph - N/A   Clear
7:35 PM 68.4 °F - 59.0 °F 72% 29.90 in 10.0 mi WSW 4.6 mph - N/A   Clear
7:55 PM 67.3 °F - 59.0 °F 75% 29.91 in 7.0 mi WSW 4.6 mph - N/A   Clear
8:15 PM 63.9 °F - 57.9 °F 81% 29.92 in 7.0 mi WSW 3.5 mph - N/A   Clear
8:35 PM 61.7 °F - 57.0 °F 85% 29.92 in 10.0 mi Calm Calm - N/A   Clear
8:55 PM 61.7 °F - 58.5 °F 89% 29.92 in 10.0 mi SW 3.5 mph - N/A   Clear
9:15 PM 61.3 °F - 58.1 °F 89% 29.93 in 10.0 mi SSW 5.8 mph - N/A   Clear
9:35 PM 61.0 °F - 58.3 °F 91% 29.93 in 10.0 mi SSW 5.8 mph - N/A   Clear
9:55 PM 58.8 °F - 57.0 °F 94% 29.94 in 10.0 mi South 4.6 mph - N/A   Clear
10:15 PM 58.6 °F - 57.4 °F 96% 29.94 in 10.0 mi South 3.5 mph - N/A   Clear
10:35 PM 58.6 °F - 57.4 °F 96% 29.95 in 10.0 mi South 3.5 mph - N/A   Clear
10:55 PM 57.2 °F - 56.8 °F 99% 29.95 in 7.0 mi SSW 3.5 mph - N/A   Clear
11:15 PM 56.7 °F - 55.9 °F 97% 29.96 in 10.0 mi SW 3.5 mph - N/A   Clear
11:35 PM 56.1 °F - 55.9 °F 99% 29.96 in 7.0 mi SW 5.8 mph - N/A   Clear
11:55 PM 56.1 °F - 55.9 °F 99% 29.97 in 7.0 mi SW 3.5 mph - N/A   Clear